Regional Weather Roundup
Issued by NWS

Home | Current Version | Previous Version | Graphics & Text | Print | Product List | Glossary On
Versions: 1 2 3 4 5 6 7 8 9 10 11 12 13 14 15 16 17 18 19 20 21 22 23 24 25 26 27 28 29 30 31 32 33 34 35 36 37 38 39 40 41 42 43 44 45 46 47 48 49 50
000
ASUS45 KCYS 250110
RWRWY

WYOMING REGIONAL WEATHER ROUNDUP
NATIONAL WEATHER SERVICE CHEYENNE WY
700 PM MDT SUN MAY 24 2015

NOTE:  "FAIR" INDICATES FEW OR NO CLOUDS BELOW 12,000 FEET
WITH NO SIGNIFICANT WEATHER AND/OR OBSTRUCTIONS TO VISIBILITY.

WYZ001-250200-
YELLOWSTONE NATIONAL PARK

CITY           SKY/WX    TMP DP  RH WIND       PRES   REMARKS
LK YELLOWSTONE   N/A     46  36  68 CALM      30.02F
W YELLOWSTONE  NOT AVBL

$$
WYZ002>013-054>058-071-098>099-250200-
NORTHERN WYOMING

CITY           SKY/WX    TMP DP  RH WIND       PRES   REMARKS
JACKSON        MOSUNNY   55  37  50 N12       29.92F
CODY           CLOUDY    50  43  76 NW8       29.98F
GREYBULL       CLOUDY    56  46  69 NW17      29.89S
WORLAND        CLOUDY    53  47  79 NW13      29.90F
SHERIDAN       LGT RAIN  51  49  92 N9        29.94S
BUFFALO        LGT RAIN  47  45  93 N7        29.94R FOG
GILLETTE       CLOUDY    51  48  89 NE12      29.90S
HULETT         LGT RAIN  50  50 100 NE7       29.92S
NEWCASTLE      CLOUDY    57  43  58 MISG      29.85S

$$
WYZ014>020-022>026-101>103-250200-
CENTRAL WYOMING

CITY           SKY/WX    TMP DP  RH WIND       PRES   REMARKS
BIG PINEY      LGT RAIN  43  40  89 SW18      29.95F
PINEDALE       CLOUDY    46  39  76 S7        29.96R
DUBOIS         FAIR      46  37  71 SE5       29.96S
LANDER         CLOUDY    50  41  71 NW9       29.93S
RIVERTON       CLOUDY    50  42  74 N15       29.94S
CASPER         PTSUNNY   51  44  77 N12       29.88F
DOUGLAS        PTSUNNY   49  45  86 NW14      29.89R

$$
WYZ021-027>030-104>119-250200-
SOUTHERN WYOMING

CITY           SKY/WX    TMP DP  RH WIND       PRES   REMARKS
EVANSTON       LGT RAIN  47  42  83 SW10      29.95F
KEMMERER       LGT RAIN  43  41  93 SE3       29.96S
FORT BRIDGER   CLOUDY    48  45  87 SE7       29.98S
ROCK SPRINGS   LGT RAIN  44  40  85 NE8       29.96S FOG
DIXON          DRIZZLE   45  39  78 CALM      29.95S
RAWLINS        PTSUNNY   51  38  60 NW12      29.90F
SARATOGA       FAIR      43  37  81 SW3       29.92F
LARAMIE        PTSUNNY   48  36  63 N3        29.90F
CHEYENNE       CLOUDY    50  40  68 NE7       29.87R
TORRINGTON     LGT RAIN  54  46  74 W8        29.82R
PINE BLUFFS    MOCLDY    50  45  81 N10       29.84F

$$



USA.gov is the U.S. government's official web portal to all federal, state and local government web resources and services.